Вернуться в каталог

STARLINK-33802

АктивенСвязьVLEO
NORAD 64392·PAYLOAD·🇺🇸 United States

Запущен Jun 13, 2025 с Cape Canaveral Space Force Station

Loading…

Ближайшие Пролёты (ближайшие 24 часа)

TLE

СвежийSource: CelesTrak SupGP

Эпоха: Sep 15, 2026, 03:01 UTC

1 64392C 25127Y   26258.12618056 -.00045355  00000+0 -16431-2 0  2581
2 64392  43.0007 190.2784 0001062 276.4304 134.8283 15.27594805    12

Отслеживайте STARLINK-33802 в реальном времени с AllMySat

Download on the App Store